Temp
90 90 90 90 90 91 90 90 92 91 90 92 91 89 90 91 92 91 92 91 91 91 91 90 90 90 92 91 91 90 89 92 87 91 92 92 93 94 96 94 94 94
90 90 89 91 90 90 90 92 91 91 89 91 90 92 91 91 92 92 91 91 91 91 91 91 91 90 91 92 90 91 90 90 91 95 91 91 92 93 94 94 95 95
91 91 91 91 92 90 94 93 92 92 93 93 93 92 93 94 93 91 91 91 91 93 91 91 91 90 91 90 89 91 91 89 89 94 91 90 92 92 93 96 97 96
90 91 93 93 93 92 94 92 91 91 92 92 93 95 95 96 93 92 91 91 91 91 92 92 91 92 91 91 90 91 91 89 91 90 89 90 91 93 93 94 95 96
92 92 93 93 93 90 93 94 94 94 94 93 94 93 92 91 92 93 91 91 90 91 91 91 91 92 90 90 90 90 91 92 91 90 89 89 90 91 93 94 92 93
91 91 92 91 92 93 94 94 94 95 94 91 93 94 94 93 94 93 92 93 93 94 94 93 92 93 93 91 90 90 92 93 93 89 89 89 91 93 95 93 92 91
93 92 93 94 95 94 93 93 93 94 95 96 94 94 93 95 93 93 92 93 95 93 94 92 91 91 92 91 90 89 90 90 91 89 89 90 90 90 93 93 91 90
94 94 93 94 95 95 94 94 95 94 95 95 95 94 95 95 94 95 94 94 95 94 93 94 91 90 94 93 90 90 90 94 93 90 89 89 90 89 90 93 92 90
94 94 93 94 95 95 95 97 96 96 95 95 96 96 95 95 96 96 93 93 93 93 92 92 91 92 93 93 91 90 90 92 95 92 90 90 90 90 91 92 91 90
93 94 95 95 95 96 96 97 98 96 96 96 97 98 95 95 95 96 94 91 93 91 91 92 91 92 93 93 92 91 91 90 91 91 92 92 91 92 93 92 92 91
94 95 95 95 96 97 97 97 98 98 97 96 97 97 98 97 94 95 93 92 94 92 92 91 92 93 92 94 93 93 92 93 92 91 92 92 92 92 92 92 92 92
91 94 95 95 96 98 98 97 98 98 98 97 98 96 96 98 96 96 95 92 93 93 93 92 92 93 91 92 95 94 93 93 93 93 93 93 93 94 94 94 93 93
91 94 95 96 95 97 99 98 98 98 98 98 98 97 97 97 97 95 95 95 93 94 95 92 92 93 91 91 93 93 94 93 95 94 94 94 95 96 97 96 96 96
91 92 92 94 95 94 96 99 99 98 97 96 96 96 97 97 97 97 97 96 96 95 95 94 91 92 92 91 92 93 94 94 94 94 94 94 95 95 97 98 98 98
89 90 91 92 93 93 93 94 96 96 96 96 95 96 99 98 98 98 96 96 95 95 94 96 96 95 96 93 92 92 93 94 94 94 94 93 94 96 97 97 97 99
89 89 89 89 89 89 89 91 93 94 96 95 95 95 94 94 95 96 98 96 96 95 95 97 97 98 93 89 88 92 92 94 94 93 93 93 93 93 95 97 99 99
88 87 88 87 88 88 88 88 89 91 91 92 92 93 92 91 94 95 96 98 97 97 95 97 98 95 81 78 79 82 92 93 93 92 93 92 93 91 91 94 96 97
86 86 86 87 87 86 87 87 87 88 88 89 90 92 91 93 93 93 93 96 97 97 97 97 95 70 68 70 73 73 80 90 93 93 95 93 93 93 93 94 94 96
85 85 85 85 85 85 85 86 85 86 86 86 87 89 91 89 89 91 92 92 94 94 96 97 85 67 66 67 67 68 68 80 92 92 93 94 94 94 94 93 93 94
82 82 83 83 84 84 84 84 84 84 85 86 86 86 86 87 90 89 91 90 91 92 92 93 80 67 64 64 66 66 67 74 89 91 92 93 92 94 96 95 94 93
81 81 81 82 81 82 83 83 83 83 83 84 85 84 84 84 82 79 81 85 91 92 91 82 74 61 63 63 63 64 64 73 85 90 92 92 93 94 92 94 93 95
81 81 82 81 80 80 80 81 82 82 83 83 82 82 80 77 77 78 77 78 78 77 74 79 73 59 60 60 60 62 65 82 86 86 87 89 91 92 92 92 89 82
80 81 79 79 76 76 79 80 80 81 82 82 81 82 77 75 76 76 74 74 75 75 74 74 76 63 57 57 59 57 71 84 84 86 87 88 89 90 89 84 81 78
78 78 77 75 75 75 76 80 80 80 80 80 78 74 73 75 77 75 75 75 75 74 75 74 71 64 57 56 57 56 67 81 84 85 85 85 84 86 84 81 81 81
79 78 75 74 75 75 77 78 78 78 78 78 77 77 76 76 75 74 73 74 73 73 74 73 72 68 57 56 55 55 66 79 81 80 80 80 84 82 81 80 78 78
77 76 76 76 75 75 76 76 78 79 79 79 79 81 81 78 76 76 74 73 73 72 72 71 70 70 64 54 54 55 56 71 81 78 76 76 78 79 80 78 78 79
MSLP
1019.05 1019.17 1019.41 1019.57 1019.57 1019.53 1019.69 1019.89 1019.81 1020.05 1020.05 1020.01 1020.33 1020.57 1020.45 1020.25 1020.01 1020.33 1020.37 1020.49 1020.61 1020.65 1020.77 1020.85 1020.89 1021.01 1020.93 1020.97 1021.01 1021.13 1021.37 1021.05 1021.61 1021.09 1021.05 1021.01 1021.05 1021.01 1020.93 1020.97 1020.93 1020.89
1019.01 1019.01 1019.17 1019.21 1019.45 1019.49 1019.45 1019.37 1019.57 1019.65 1020.01 1019.81 1020.09 1019.93 1019.85 1020.01 1020.13 1020.13 1020.37 1020.53 1020.57 1020.65 1020.65 1020.77 1020.81 1020.89 1020.89 1020.89 1021.05 1021.17 1021.29 1021.25 1021.29 1020.65 1021.09 1021.25 1021.17 1020.97 1020.93 1020.81 1020.77 1020.61
1018.81 1018.97 1019.17 1019.29 1019.37 1019.57 1019.25 1019.25 1019.29 1019.45 1019.57 1019.49 1019.49 1019.57 1019.81 1019.73 1019.97 1020.09 1020.21 1020.33 1020.45 1020.45 1020.65 1020.61 1020.73 1020.81 1020.85 1020.89 1021.01 1021.09 1021.21 1021.33 1021.41 1020.77 1021.01 1021.29 1021.09 1021.09 1020.85 1020.49 1020.37 1020.45
1018.69 1018.65 1018.77 1018.85 1018.81 1019.13 1018.93 1019.13 1019.33 1019.33 1019.33 1019.53 1019.61 1019.37 1019.29 1019.45 1019.69 1020.05 1020.17 1020.21 1020.37 1020.37 1020.41 1020.49 1020.61 1020.57 1020.73 1020.81 1020.93 1021.05 1021.01 1021.17 1020.97 1020.97 1021.21 1021.13 1021.05 1020.89 1020.73 1020.57 1020.45 1020.41
1018.49 1018.57 1018.41 1018.65 1018.53 1019.09 1018.77 1018.93 1019.09 1019.13 1019.25 1019.37 1019.25 1019.25 1019.45 1019.69 1019.81 1019.93 1020.09 1020.25 1020.29 1020.37 1020.37 1020.49 1020.49 1020.53 1020.61 1020.77 1020.85 1021.09 1020.89 1021.01 1020.85 1021.01 1021.29 1021.41 1021.09 1020.93 1020.73 1020.57 1020.85 1020.97
1018.21 1018.29 1018.33 1018.53 1018.57 1018.57 1018.77 1018.85 1018.85 1018.85 1019.13 1019.61 1019.33 1019.21 1019.33 1019.45 1019.57 1019.73 1019.89 1020.05 1020.13 1020.09 1020.17 1020.21 1020.37 1020.37 1020.41 1020.61 1020.77 1020.85 1020.73 1020.77 1020.57 1020.97 1021.21 1021.33 1021.09 1020.65 1020.53 1020.57 1020.85 1021.09
1018.13 1018.25 1018.33 1018.21 1018.29 1018.41 1018.69 1018.69 1018.77 1018.57 1018.73 1018.53 1018.85 1019.05 1019.21 1019.29 1019.53 1019.53 1019.69 1019.77 1019.69 1019.89 1019.89 1020.13 1020.25 1020.37 1020.21 1020.41 1020.69 1020.85 1020.77 1020.77 1020.77 1020.97 1021.17 1021.05 1021.05 1021.05 1020.65 1020.65 1020.89 1021.09
1017.85 1017.93 1018.09 1018.09 1018.21 1018.21 1018.53 1018.53 1018.49 1018.57 1018.45 1018.45 1018.89 1018.85 1018.73 1019.09 1019.21 1019.25 1019.41 1019.49 1019.61 1019.69 1019.69 1019.81 1020.09 1020.25 1020.09 1020.21 1020.57 1020.73 1020.77 1020.49 1020.69 1020.89 1021.09 1021.13 1020.97 1021.17 1021.01 1020.69 1020.73 1021.09
1017.57 1017.81 1017.97 1018.09 1018.09 1018.05 1018.33 1018.17 1018.25 1018.33 1018.25 1018.57 1018.61 1018.65 1018.65 1018.73 1018.93 1018.89 1019.25 1019.33 1019.45 1019.57 1019.77 1019.85 1020.01 1020.09 1019.97 1020.01 1020.25 1020.53 1020.73 1020.45 1020.13 1020.49 1020.85 1020.97 1021.05 1021.05 1020.89 1020.61 1020.81 1020.93
1017.65 1017.57 1017.73 1017.89 1018.05 1017.93 1018.01 1017.97 1017.85 1018.09 1018.05 1018.25 1018.29 1018.13 1018.61 1018.53 1018.53 1018.69 1019.05 1019.41 1019.53 1019.65 1019.77 1019.81 1019.89 1019.93 1019.85 1019.89 1020.13 1020.25 1020.45 1020.57 1020.45 1020.41 1020.41 1020.53 1020.65 1020.65 1020.61 1020.61 1020.65 1020.81
1017.41 1017.41 1017.53 1017.69 1017.73 1017.57 1017.77 1017.73 1017.77 1017.77 1017.81 1018.01 1018.01 1018.17 1018.05 1018.21 1018.61 1018.49 1018.93 1019.29 1019.41 1019.53 1019.65 1019.73 1019.69 1019.69 1019.85 1019.69 1019.73 1019.73 1019.97 1020.13 1020.17 1020.21 1020.25 1020.33 1020.33 1020.33 1020.29 1020.37 1020.49 1020.65
1017.33 1017.29 1017.37 1017.49 1017.45 1017.29 1017.33 1017.49 1017.49 1017.61 1017.65 1017.77 1017.77 1018.05 1018.05 1017.89 1018.29 1018.49 1018.65 1019.13 1019.09 1019.09 1019.21 1019.37 1019.37 1019.41 1019.57 1019.57 1019.45 1019.49 1019.65 1019.73 1019.77 1019.97 1020.05 1019.97 1019.97 1019.93 1019.97 1019.97 1020.13 1020.21
1017.37 1017.17 1017.01 1017.13 1017.25 1017.05 1016.85 1017.01 1017.29 1017.29 1017.45 1017.69 1017.61 1017.77 1017.93 1018.01 1018.01 1018.25 1018.29 1018.61 1018.85 1018.77 1018.81 1019.01 1019.17 1019.17 1019.29 1019.41 1019.41 1019.33 1019.41 1019.57 1019.53 1019.65 1019.69 1019.69 1019.65 1019.61 1019.45 1019.45 1019.49 1019.57
1017.21 1017.01 1016.97 1016.93 1016.77 1016.97 1016.93 1016.73 1016.89 1017.13 1017.33 1017.37 1017.45 1017.69 1017.73 1017.81 1017.93 1018.17 1018.09 1018.13 1018.37 1018.53 1018.53 1018.57 1018.93 1019.01 1019.09 1019.17 1019.21 1019.21 1019.25 1019.37 1019.41 1019.53 1019.53 1019.53 1019.41 1019.25 1019.13 1018.97 1018.89 1018.97
1017.13 1017.05 1016.97 1017.01 1017.05 1017.17 1017.33 1017.21 1016.93 1017.01 1017.13 1017.29 1017.49 1017.49 1017.29 1017.33 1017.45 1017.57 1017.93 1018.21 1018.13 1018.25 1018.29 1018.25 1018.49 1018.65 1018.61 1018.85 1019.13 1019.21 1019.09 1019.17 1019.25 1019.33 1019.41 1019.53 1019.45 1019.21 1018.93 1018.93 1018.85 1018.65
1017.05 1017.17 1017.29 1017.33 1017.53 1017.65 1017.65 1017.53 1017.37 1017.25 1017.17 1017.33 1017.49 1017.57 1017.49 1017.41 1017.33 1017.37 1017.45 1017.81 1018.09 1018.13 1018.13 1018.13 1018.21 1018.09 1018.17 1018.45 1018.57 1018.77 1019.01 1019.05 1019.01 1019.05 1019.17 1019.25 1019.37 1019.41 1019.25 1018.85 1018.65 1018.53
1017.09 1017.29 1017.37 1017.57 1017.61 1017.65 1017.69 1017.77 1017.69 1017.45 1017.49 1017.45 1017.57 1017.61 1017.73 1017.65 1017.61 1017.61 1017.57 1017.45 1017.65 1017.81 1018.05 1018.09 1017.89 1017.93 1018.09 1018.25 1018.45 1018.73 1018.81 1018.85 1019.01 1019.01 1018.97 1019.13 1019.29 1019.49 1019.57 1019.29 1018.85 1018.53
1017.37 1017.45 1017.57 1017.57 1017.65 1017.81 1017.81 1017.81 1017.77 1017.81 1017.85 1017.85 1017.81 1017.77 1017.77 1017.69 1017.89 1017.89 1017.77 1017.61 1017.53 1017.61 1017.69 1017.69 1017.93 1018.73 1018.57 1018.85 1018.89 1019.01 1019.05 1019.09 1019.01 1019.01 1018.93 1019.01 1019.05 1019.21 1019.17 1019.09 1019.01 1018.73
1017.45 1017.53 1017.65 1017.73 1017.77 1017.85 1017.89 1017.89 1018.01 1018.05 1018.13 1018.17 1018.25 1017.97 1017.81 1018.09 1018.17 1018.05 1018.05 1017.93 1017.73 1017.73 1017.85 1017.69 1018.77 1019.45 1019.17 1019.13 1019.25 1019.37 1019.49 1019.41 1019.13 1019.09 1019.05 1018.89 1018.73 1018.69 1018.77 1018.85 1018.81 1018.77
1017.89 1018.01 1018.13 1018.01 1017.85 1017.85 1017.97 1018.13 1018.21 1018.29 1018.17 1018.05 1018.05 1018.09 1018.33 1018.37 1018.17 1018.29 1018.05 1018.09 1018.13 1018.05 1018.13 1018.29 1019.45 1019.89 1019.77 1019.73 1019.65 1019.73 1019.81 1019.73 1019.37 1019.17 1019.01 1018.85 1018.77 1018.57 1018.41 1018.37 1018.45 1018.73
1018.09 1018.17 1018.25 1018.05 1017.93 1017.89 1017.97 1018.01 1018.13 1018.21 1018.25 1018.17 1018.17 1018.33 1018.49 1018.65 1018.89 1019.49 1019.33 1018.97 1018.45 1018.33 1018.65 1019.77 1020.61 1020.77 1020.41 1020.25 1020.13 1020.05 1020.01 1019.89 1019.49 1019.21 1018.85 1018.69 1018.45 1018.29 1018.33 1018.45 1018.45 1018.41
1017.81 1017.81 1017.73 1017.77 1017.85 1018.09 1018.17 1018.17 1018.13 1018.17 1018.21 1018.17 1018.29 1018.37 1018.61 1018.93 1019.25 1019.45 1019.97 1020.37 1019.97 1020.37 1020.97 1020.49 1020.81 1020.93 1020.73 1020.57 1020.45 1020.29 1020.17 1019.81 1019.41 1019.41 1019.25 1018.97 1018.65 1018.41 1018.29 1018.25 1018.73 1019.53
1017.81 1017.81 1017.93 1017.89 1018.29 1018.57 1018.33 1018.29 1018.33 1018.29 1018.25 1018.17 1018.41 1018.41 1018.93 1019.53 1019.77 1019.81 1020.05 1020.21 1020.25 1020.37 1020.57 1020.65 1020.65 1020.97 1020.93 1020.89 1020.73 1020.65 1020.25 1019.77 1019.53 1019.33 1019.17 1019.05 1018.81 1018.61 1018.69 1019.13 1019.33 1019.41
1018.01 1018.01 1018.25 1018.45 1018.57 1018.77 1018.65 1018.37 1018.29 1018.33 1018.53 1018.49 1018.77 1019.29 1019.73 1019.73 1019.57 1019.73 1019.93 1020.01 1020.21 1020.57 1020.49 1020.65 1020.89 1020.93 1020.89 1020.97 1020.93 1020.89 1020.61 1020.05 1019.53 1019.45 1019.37 1019.37 1019.45 1019.17 1019.13 1019.41 1019.49 1019.65
1018.13 1018.17 1018.61 1018.93 1019.05 1019.05 1018.69 1018.77 1018.73 1018.73 1018.73 1018.65 1018.93 1019.09 1019.45 1019.45 1019.69 1019.93 1020.09 1020.21 1020.37 1020.77 1020.89 1020.81 1020.85 1020.81 1020.85 1020.93 1020.97 1021.01 1020.81 1020.21 1019.89 1019.89 1020.05 1020.21 1019.73 1019.89 1019.77 1019.81 1019.93 1019.97
1018.65 1018.53 1018.57 1018.77 1018.97 1019.05 1018.97 1018.85 1018.73 1018.69 1018.73 1018.73 1018.81 1018.81 1018.97 1019.21 1019.53 1019.77 1020.25 1020.49 1020.49 1020.69 1020.93 1021.01 1021.21 1021.09 1021.05 1021.09 1021.21 1021.13 1021.05 1020.61 1019.93 1020.13 1020.41 1020.41 1020.37 1020.29 1020.21 1020.05 1020.05 1019.97
Wind_Speed
6 6 6 6 5 4 5 5 6 6 5 5 6 6 5 5 5 5 5 5 5 5 5 4 4 4 4 3 2 4 3 1 3 2 2 2 3 3 3 2 2 3
8 7 6 6 5 5 5 5 5 6 5 4 4 4 5 6 5 6 5 5 5 5 5 5 5 5 4 3 4 3 1 2 3 2 2 2 3 4 3 3 3 2
8 8 8 7 6 7 7 6 5 5 6 6 6 6 6 6 7 6 6 5 5 6 5 5 5 5 5 3 3 3 4 3 3 3 0 2 4 3 4 4 3 1
9 9 8 8 7 7 6 6 6 5 6 6 6 6 6 6 6 7 6 6 6 5 6 6 5 5 5 4 4 4 3 3 3 1 1 2 3 4 4 3 3 4
10 9 8 7 7 8 7 6 7 7 5 4 7 6 4 6 7 7 7 7 6 6 6 6 6 5 5 4 4 4 4 4 4 3 3 4 4 3 4 3 3 3
9 8 8 8 8 6 6 7 6 7 8 9 6 6 7 6 6 7 7 8 8 7 7 7 7 6 6 6 5 5 4 5 4 5 4 4 4 3 4 2 2 3
11 10 10 8 9 8 8 7 7 6 7 6 7 6 7 7 7 7 7 7 7 7 7 7 6 6 5 5 5 5 4 5 2 4 4 4 4 4 4 4 3 3
10 10 10 9 10 10 9 8 8 7 7 6 8 6 7 8 8 8 7 7 7 7 6 7 7 6 6 6 6 5 6 6 6 5 5 5 4 4 4 4 3 4
10 10 10 11 11 10 11 10 9 9 8 8 7 8 7 7 8 8 7 7 6 6 6 6 6 7 6 6 6 6 6 6 5 6 6 6 6 5 5 5 5 5
10 10 12 12 11 10 10 10 9 9 9 9 9 8 8 7 8 8 8 7 7 6 7 6 7 7 7 7 7 6 6 6 6 5 5 6 5 5 5 5 6 5
12 11 11 12 12 11 11 11 10 9 9 9 9 8 8 9 8 7 8 8 8 8 7 8 7 8 7 8 8 7 8 7 7 6 6 6 6 5 5 5 5 5
10 11 11 11 11 11 12 11 10 10 10 10 9 9 9 8 9 8 8 8 8 8 8 8 8 7 7 7 8 7 7 7 6 6 7 7 7 7 7 7 7 6
10 11 10 11 11 10 10 10 11 10 10 9 8 8 9 9 8 9 9 9 9 8 8 9 9 8 7 7 7 7 7 7 7 7 7 6 7 7 7 7 8 8
10 9 8 9 9 8 8 8 10 10 9 8 8 10 10 10 10 9 8 9 9 9 9 8 8 8 8 8 7 7 7 8 8 7 7 7 8 8 8 8 8 8
8 8 7 6 5 5 8 8 6 8 8 9 8 9 8 9 10 11 10 10 9 9 9 8 9 9 8 8 8 8 7 8 7 8 7 7 7 8 8 8 8 8
9 8 7 7 7 7 7 7 8 8 8 9 9 9 8 7 8 9 10 10 10 10 9 9 8 8 9 7 3 3 8 7 8 7 7 7 7 7 9 9 8 8
8 8 8 8 7 7 7 7 7 7 8 7 8 8 8 7 8 10 10 9 10 9 10 9 10 1 6 12 10 2 5 5 5 6 6 7 8 7 7 9 9 8
7 7 7 7 7 6 7 6 6 7 7 7 8 9 8 9 9 9 9 10 10 10 9 10 2 6 9 9 9 6 4 4 7 7 7 8 8 8 8 9 9 10
4 7 7 6 6 5 4 5 5 7 7 7 7 7 7 8 9 9 10 10 10 9 9 7 8 9 9 9 8 8 6 4 7 8 9 9 9 8 8 8 8 8
5 5 7 8 6 7 6 6 5 6 6 6 5 5 5 6 7 9 9 8 8 8 7 2 9 10 9 9 8 7 5 3 5 8 9 10 10 10 9 8 7 8
8 9 9 9 7 8 9 9 9 8 8 6 5 5 5 4 3 5 8 8 7 7 1 9 7 12 10 8 8 5 5 4 5 7 8 9 9 10 9 10 10 10
8 8 8 8 7 7 7 8 8 9 8 7 6 3 1 3 4 3 4 9 8 9 6 6 8 12 11 11 11 9 6 4 6 6 7 8 9 9 8 6 7 11
2 4 5 4 5 7 5 4 4 4 4 3 5 5 3 3 1 2 3 3 7 6 8 5 5 9 10 11 11 12 7 5 7 7 7 8 8 7 5 7 4 4
2 2 3 3 3 1 4 4 3 3 2 3 4 6 5 3 4 6 6 8 9 6 2 5 5 7 10 10 11 11 9 6 6 6 6 6 6 5 4 6 6 9
2 2 4 5 5 4 3 4 5 4 4 4 4 4 5 5 5 7 6 6 8 7 7 6 5 6 10 10 11 11 9 6 5 5 5 8 6 3 4 4 4 6
3 4 6 6 6 7 5 6 5 5 4 5 5 3 3 6 7 7 8 7 6 6 5 5 4 5 8 10 9 10 10 7 5 4 2 4 4 2 1 2 3 1
Wind_Direction
172 174 174 179 176 182 176 177 182 172 182 174 177 174 186 173 175 167 178 170 185 191 177 192 187 204 211 199 221 195 242 277 347 226 240 287 279 274 281 338 295 249
181 179 180 184 169 186 186 185 180 175 172 195 159 182 165 164 169 171 169 176 178 190 184 184 188 202 213 201 198 224 229 248 245 260 204 236 266 275 263 252 276 325
185 185 185 191 181 197 185 182 172 192 169 192 166 172 167 173 172 170 173 184 186 179 184 189 187 195 200 201 197 219 212 215 232 258 44 271 285 286 285 286 270 216
193 195 192 196 193 183 186 180 174 194 176 182 182 174 197 155 170 174 169 194 179 187 176 193 193 191 195 198 210 227 207 218 232 247 246 264 263 279 290 276 276 293
190 197 201 191 207 174 201 182 188 188 166 202 173 176 196 151 190 173 175 185 189 184 180 186 188 195 188 198 200 231 211 226 210 214 240 245 249 242 254 265 314 289
190 192 208 192 201 192 195 188 202 183 180 184 177 186 180 177 187 186 178 190 186 195 185 188 186 194 195 185 209 219 227 238 177 193 214 236 254 252 255 244 248 265
186 192 197 199 197 187 202 187 198 199 188 190 178 187 184 186 190 192 184 197 195 188 194 180 184 199 196 186 202 206 228 245 224 200 234 243 230 246 260 248 241 264
191 188 196 199 205 182 202 189 194 200 185 199 178 195 187 188 190 189 194 189 205 188 198 175 183 198 205 191 203 207 216 209 213 220 232 246 255 246 240 263 239 232
194 189 193 201 207 198 197 198 190 195 186 196 197 184 191 202 185 200 180 196 208 185 194 187 184 200 218 214 204 211 217 240 222 203 214 226 223 230 238 236 240 241
194 198 194 197 206 208 204 203 198 192 191 199 200 193 185 200 192 198 174 196 202 188 190 207 193 207 210 211 215 213 221 223 240 239 227 227 234 235 237 234 241 246
194 201 198 199 205 204 205 205 206 205 188 206 199 207 201 181 192 200 180 188 206 194 197 206 204 205 213 218 211 213 216 220 220 220 224 226 237 247 253 259 266 267
203 199 200 201 209 210 199 202 208 206 203 199 206 199 208 201 180 203 188 191 212 201 201 204 209 212 211 225 225 216 216 230 219 224 231 231 230 226 225 230 238 236
202 207 203 199 204 216 206 196 202 210 207 211 203 210 209 206 194 200 194 197 202 212 206 200 206 213 212 213 229 233 230 229 235 223 228 232 235 241 241 234 232 230
201 208 213 213 203 203 234 214 201 202 209 217 213 210 216 209 212 206 205 202 199 208 214 207 207 217 211 219 223 233 228 226 228 239 239 233 239 239 245 249 241 237
201 205 213 219 229 209 213 241 224 208 205 206 217 230 218 217 214 215 209 214 213 214 215 218 213 214 216 211 217 225 248 239 233 236 237 248 255 261 251 244 254 259
191 195 196 202 204 204 212 217 224 223 219 211 212 220 234 235 231 223 223 216 214 214 217 222 229 226 209 206 226 226 218 236 242 234 238 247 247 241 253 258 254 264
177 179 184 192 193 200 203 212 225 227 228 222 217 216 225 229 234 231 227 230 227 222 219 222 228 29 105 154 167 159 271 253 254 253 240 242 250 258 266 274 276 272
177 181 187 188 191 197 202 212 218 221 223 222 225 224 217 231 225 232 238 233 231 229 229 235 164 72 90 67 67 60 29 272 261 261 253 247 245 249 255 252 252 259
210 207 206 208 200 193 201 209 212 220 221 225 230 240 236 227 233 229 227 234 247 245 235 232 88 34 52 61 57 43 38 314 252 261 269 264 260 255 252 259 271 269
213 235 217 216 215 213 213 221 225 223 223 226 231 231 240 244 244 245 238 234 240 250 248 92 68 35 30 40 47 45 43 316 264 264 261 266 270 268 270 265 248 248
213 206 208 208 206 219 222 221 222 223 225 225 227 233 236 252 277 316 317 294 250 242 270 60 37 20 30 28 30 15 25 327 270 273 268 265 264 257 249 258 270 279
211 213 211 210 196 207 214 218 223 224 226 216 223 222 333 4 339 331 314 290 347 353 57 19 47 17 22 22 13 8 344 277 257 254 264 268 268 273 283 306 2 16
168 182 180 196 200 214 199 196 207 211 206 200 221 217 150 127 259 142 131 73 51 46 122 122 82 30 22 23 14 5 328 270 259 264 263 268 271 284 319 44 46 42
134 142 116 50 35 128 196 170 136 98 101 70 54 67 87 95 96 93 71 72 63 49 48 94 82 48 37 23 16 4 339 300 278 273 266 264 280 298 51 69 70 47
148 145 131 175 184 186 133 114 106 105 93 96 88 83 78 92 76 76 76 63 61 58 55 63 60 58 43 28 14 8 352 317 303 289 302 305 305 356 37 38 37 44
86 76 81 88 98 102 113 117 131 125 119 107 110 101 118 106 100 83 78 83 84 81 71 62 57 43 36 26 21 4 358 327 307 292 279 258 260 205 329 353 0 329